|
Cosmos 1833 Rocket - Orbit
|
La Vergne;
07:31:56
| Home | Info | Passes |
|
View from above orbital plane
|
View from above satellite
|
Ground track
|
The orbit data is extracted from the following two-line orbital elements,
1 17590U 87027B 13140.13503961 .00000264 00000-0 15611-3 0 4087
2 17590 071.0052 045.2178 0003759 031.3070 328.8277 14.16582278353242
| Epoch (UTC): | 20 May 2013 03:14:27 |
| Eccentricity: | 0.0003759 |
| inclination: | 71.0052° |
| perigee height: | 834 km |
| apogee height: | 839 km |
| right ascension of ascending node: | 45.2178° |
| argument of perigee: | 31.3070° |
| revolutions per day: | 14.16582278 |
| mean anomaly at epoch: | 328.8277° |
| orbit number at epoch: | 35324 |
The dashed part of the orbit path shows where the satellite is in the earth's shadow,
|
|